Time,TemperatureF,DewpointF,PressureIn,WindDirection,WindDirectionDegrees,WindSpeedMPH,WindSpeedGustMPH,Humidity,HourlyPrecipIn,Conditions,Clouds,dailyrainin,SoftwareType,DateUTC
2013-03-01 00:03:00,54.9,26.3,29.44,ENE,74,0.0,0.0,33,0.00,SKC,SKC,0.00,WeatherDisplay:10.37,2013-03-01 08:03:00,
2013-03-01 00:13:00,54.3,25.8,29.44,East,80,0.0,0.0,33,0.00,SKC,SKC,0.00,WeatherDisplay:10.37,2013-03-01 08:13:00,
2013-03-01 00:23:00,53.7,25.3,29.44,NE,54,0.0,0.0,33,0.00,SKC,SKC,0.00,WeatherDisplay:10.37,2013-03-01 08:23:00,
2013-03-01 00:33:00,53.4,25.0,29.44,NE,51,0.0,0.0,33,0.00,SKC,SKC,0.00,WeatherDisplay:10.37,2013-03-01 08:33:00,
2013-03-01 00:43:00,53.2,24.8,29.44,NE,47,0.0,0.0,33,0.00,SKC,SKC,0.00,WeatherDisplay:10.37,2013-03-01 08:43:00,
2013-03-01 00:53:00,53.1,24.7,29.44,NE,38,0.0,0.0,33,0.00,SKC,SKC,0.00,WeatherDisplay:10.37,2013-03-01 08:53:00,
2013-03-01 01:03:00,53.1,24.7,29.44,NE,44,0.0,3.0,33,0.00,SKC,SKC,0.00,WeatherDisplay:10.37,2013-03-01 09:03:00,
2013-03-01 01:08:00,53.1,24.7,29.44,NE,39,1.0,4.0,33,0.00,SKC,SKC,0.00,WeatherDisplay:10.37,2013-03-01 09:08:00,
2013-03-01 01:13:00,53.1,24.7,29.44,NNE,24,0.0,3.0,33,0.00,SKC,SKC,0.00,WeatherDisplay:10.37,2013-03-01 09:13:00,
2013-03-01 01:18:00,53.1,24.7,29.44,NNE,21,1.0,3.0,33,0.00,SKC,SKC,0.00,WeatherDisplay:10.37,2013-03-01 09:18:00,
2013-03-01 01:23:00,53.2,24.8,29.44,NNE,23,0.0,0.0,33,0.00,SKC,SKC,0.00,WeatherDisplay:10.37,2013-03-01 09:23:00,
2013-03-01 01:33:00,53.1,24.7,29.44,NNE,22,0.0,3.0,33,0.00,SKC,SKC,0.00,WeatherDisplay:10.37,2013-03-01 09:33:00,
2013-03-01 01:38:00,53.1,24.7,29.44,NNE,22,0.0,0.0,33,0.00,SKC,SKC,0.00,WeatherDisplay:10.37,2013-03-01 09:38:00,
2013-03-01 01:43:00,53.1,24.7,29.44,NNE,22,0.0,0.0,33,0.00,SKC,SKC,0.00,WeatherDisplay:10.37,2013-03-01 09:43:00,
2013-03-01 01:53:00,52.9,24.6,29.44,NNE,18,0.0,0.0,33,0.00,SKC,SKC,0.00,WeatherDisplay:10.37,2013-03-01 09:53:00,
2013-03-01 01:58:00,53.1,24.7,29.44,NNE,15,0.0,0.0,33,0.00,SKC,SKC,0.00,WeatherDisplay:10.37,2013-03-01 09:58:00,
2013-03-01 02:08:00,53.1,24.7,29.44,NNE,14,0.0,0.0,33,0.00,SKC,SKC,0.00,WeatherDisplay:10.37,2013-03-01 10:08:00,
2013-03-01 02:13:00,53.2,24.8,29.44,NNE,13,0.0,0.0,33,0.00,SKC,SKC,0.00,WeatherDisplay:10.37,2013-03-01 10:13:00,
2013-03-01 02:23:00,53.1,24.7,29.44,NNE,14,0.0,0.0,33,0.00,SKC,SKC,0.00,WeatherDisplay:10.37,2013-03-01 10:23:00,
2013-03-01 02:33:00,52.8,24.5,29.44,NNE,19,0.0,0.0,33,0.00,SKC,SKC,0.00,WeatherDisplay:10.37,2013-03-01 10:33:00,
2013-03-01 02:38:00,52.5,24.2,29.44,NNE,17,0.0,3.0,33,0.00,SKC,SKC,0.00,WeatherDisplay:10.37,2013-03-01 10:38:00,
2013-03-01 02:43:00,52.5,24.2,29.44,NNE,16,0.0,2.0,33,0.00,SKC,SKC,0.00,WeatherDisplay:10.37,2013-03-01 10:43:00,
2013-03-01 02:53:00,52.0,23.7,29.42,NNE,17,0.0,0.0,33,0.00,SKC,SKC,0.00,WeatherDisplay:10.37,2013-03-01 10:53:00,
2013-03-01 03:03:00,51.9,23.6,29.41,NNE,17,0.0,0.0,33,0.00,SKC,SKC,0.00,WeatherDisplay:10.37,2013-03-01 11:03:00,
2013-03-01 03:08:00,51.8,23.6,29.41,NNE,17,0.0,0.0,33,0.00,SKC,SKC,0.00,WeatherDisplay:10.37,2013-03-01 11:08:00,
2013-03-01 03:13:00,52.0,23.7,29.41,NNE,17,0.0,0.0,33,0.00,SKC,SKC,0.00,WeatherDisplay:10.37,2013-03-01 11:13:00,
2013-03-01 03:23:00,51.9,23.7,29.41,NNE,17,0.0,0.0,33,0.00,SKC,SKC,0.00,WeatherDisplay:10.37,2013-03-01 11:23:00,
2013-03-01 03:33:00,51.8,23.6,29.41,NNE,17,0.0,0.0,33,0.00,SKC,SKC,0.00,WeatherDisplay:10.37,2013-03-01 11:33:00,
2013-03-01 03:43:00,51.4,24.0,29.41,NNE,17,0.0,0.0,34,0.00,SKC,SKC,0.00,WeatherDisplay:10.37,2013-03-01 11:43:00,
2013-03-01 03:53:00,51.4,24.0,29.41,NNE,17,0.0,0.0,34,0.00,SKC,SKC,0.00,WeatherDisplay:10.37,2013-03-01 11:53:00,
2013-03-01 04:03:00,51.8,23.6,29.41,NNE,17,0.0,0.0,33,0.00,SKC,SKC,0.00,WeatherDisplay:10.37,2013-03-01 12:03:00,
2013-03-01 04:08:00,51.8,23.5,29.41,NNE,17,0.0,0.0,33,0.00,SKC,SKC,0.00,WeatherDisplay:10.37,2013-03-01 12:08:00,
2013-03-01 04:13:00,51.8,23.5,29.41,NNE,17,0.0,0.0,33,0.00,SKC,SKC,0.00,WeatherDisplay:10.37,2013-03-01 12:13:00,
2013-03-01 04:18:00,51.6,24.1,29.41,NNE,17,0.0,0.0,34,0.00,SKC,SKC,0.00,WeatherDisplay:10.37,2013-03-01 12:18:00,
2013-03-01 04:23:00,51.6,24.1,29.41,NNE,17,0.0,0.0,34,0.00,SKC,SKC,0.00,WeatherDisplay:10.37,2013-03-01 12:23:00,
2013-03-01 04:28:00,51.5,24.1,29.41,NNE,17,0.0,0.0,34,0.00,SKC,SKC,0.00,WeatherDisplay:10.37,2013-03-01 12:28:00,
2013-03-01 04:33:00,51.4,24.0,29.41,NNE,17,0.0,0.0,34,0.00,SKC,SKC,0.00,WeatherDisplay:10.37,2013-03-01 12:33:00,
2013-03-01 04:38:00,51.6,24.1,29.41,NNE,17,0.0,0.0,34,0.00,SKC,SKC,0.00,WeatherDisplay:10.37,2013-03-01 12:38:00,
2013-03-01 04:43:00,51.6,24.1,29.41,NNE,17,0.0,0.0,34,0.00,SKC,SKC,0.00,WeatherDisplay:10.37,2013-03-01 12:43:00,
2013-03-01 04:48:00,51.3,23.8,29.41,NNE,17,0.0,0.0,34,0.00,SKC,SKC,0.00,WeatherDisplay:10.37,2013-03-01 12:48:00,
2013-03-01 04:53:00,51.1,23.7,29.41,NNE,17,0.0,0.0,34,0.00,SKC,SKC,0.00,WeatherDisplay:10.37,2013-03-01 12:53:00,
2013-03-01 04:58:00,51.1,23.7,29.41,NNE,17,0.0,0.0,34,0.00,SKC,SKC,0.00,WeatherDisplay:10.37,2013-03-01 12:58:00,
2013-03-01 05:03:00,50.9,23.5,29.41,NNE,17,0.0,0.0,34,0.00,SKC,SKC,0.00,WeatherDisplay:10.37,2013-03-01 13:03:00,
2013-03-01 05:08:00,51.3,23.8,29.41,NNE,17,0.0,0.0,34,0.00,SKC,SKC,0.00,WeatherDisplay:10.37,2013-03-01 13:08:00,
2013-03-01 05:13:00,51.6,24.1,29.41,NNE,17,0.0,0.0,34,0.00,SKC,SKC,0.00,WeatherDisplay:10.37,2013-03-01 13:13:00,
2013-03-01 05:18:00,51.5,24.0,29.41,NNE,17,0.0,0.0,34,0.00,SKC,SKC,0.00,WeatherDisplay:10.37,2013-03-01 13:18:00,
2013-03-01 05:23:00,51.2,23.7,29.41,NNE,17,0.0,0.0,34,0.00,SKC,SKC,0.00,WeatherDisplay:10.37,2013-03-01 13:23:00,
2013-03-01 05:33:00,50.5,23.2,29.41,NNE,17,0.0,0.0,34,0.00,SKC,SKC,0.00,WeatherDisplay:10.37,2013-03-01 13:33:00,
2013-03-01 05:43:00,50.5,23.2,29.41,NNE,17,0.0,0.0,34,0.00,SKC,SKC,0.00,WeatherDisplay:10.37,2013-03-01 13:43:00,
2013-03-01 05:53:00,50.1,22.8,29.44,NNE,17,0.0,0.0,34,0.00,SKC,SKC,0.00,WeatherDisplay:10.37,2013-03-01 13:53:00,
2013-03-01 06:03:00,49.6,22.4,29.44,NNE,17,0.0,0.0,34,0.00,SKC,SKC,0.00,WeatherDisplay:10.37,2013-03-01 14:03:00,
2013-03-01 06:08:00,49.5,22.2,29.44,NNE,17,0.0,0.0,34,0.00,SKC,SKC,0.00,WeatherDisplay:10.37,2013-03-01 14:08:00,
2013-03-01 06:13:00,49.6,22.4,29.44,NNE,17,0.0,0.0,34,0.00,SKC,SKC,0.00,WeatherDisplay:10.37,2013-03-01 14:13:00,
2013-03-01 06:23:00,49.5,22.9,29.44,NNE,17,0.0,0.0,35,0.00,SKC,SKC,0.00,WeatherDisplay:10.37,2013-03-01 14:23:00,
2013-03-01 06:33:00,49.5,23.6,29.44,NNE,19,2.0,4.0,36,0.00,SKC,SKC,0.00,WeatherDisplay:10.37,2013-03-01 14:33:00,
2013-03-01 06:43:00,49.5,23.6,29.44,NNE,17,1.0,4.0,36,0.00,SKC,SKC,0.00,WeatherDisplay:10.37,2013-03-01 14:43:00,
2013-03-01 06:53:00,49.6,23.7,29.42,NNE,18,2.0,3.0,36,0.00,SKC,SKC,0.00,WeatherDisplay:10.37,2013-03-01 14:53:00,
2013-03-01 07:03:00,50.1,24.2,29.41,NNE,15,2.0,4.0,36,0.00,SKC,SKC,0.00,WeatherDisplay:10.37,2013-03-01 15:03:00,
2013-03-01 07:08:00,50.5,24.5,29.41,NNE,16,1.0,4.0,36,0.00,SKC,SKC,0.00,WeatherDisplay:10.37,2013-03-01 15:08:00,
2013-03-01 07:13:00,51.2,25.2,29.41,NNE,21,0.0,3.0,36,0.00,SKC,SKC,0.00,WeatherDisplay:10.37,2013-03-01 15:13:00,
2013-03-01 07:23:00,55.2,26.6,29.41,NNE,31,0.0,0.0,33,0.00,SKC,SKC,0.00,WeatherDisplay:10.37,2013-03-01 15:23:00,
2013-03-01 07:28:00,55.9,26.5,29.41,NE,35,0.0,2.0,32,0.00,SKC,SKC,0.00,WeatherDisplay:10.37,2013-03-01 15:28:00,
2013-03-01 07:33:00,56.1,26.6,29.41,NNE,22,0.0,3.0,32,0.00,SKC,SKC,0.00,WeatherDisplay:10.37,2013-03-01 15:33:00,
2013-03-01 07:43:00,55.9,26.5,29.41,NNE,17,0.0,0.0,32,0.00,SKC,SKC,0.00,WeatherDisplay:10.37,2013-03-01 15:43:00,
2013-03-01 07:53:00,55.8,26.3,29.41,NNE,21,0.0,3.0,32,0.00,SKC,SKC,0.00,WeatherDisplay:10.37,2013-03-01 15:53:00,
2013-03-01 08:03:00,56.0,26.5,29.41,NNE,17,0.0,0.0,32,0.00,SKC,SKC,0.00,WeatherDisplay:10.37,2013-03-01 16:03:00,
2013-03-01 08:08:00,56.3,26.8,29.41,NNE,16,0.0,0.0,32,0.00,SKC,SKC,0.00,WeatherDisplay:10.37,2013-03-01 16:08:00,
2013-03-01 08:13:00,56.8,27.3,29.41,NNE,14,0.0,0.0,32,0.00,SKC,SKC,0.00,WeatherDisplay:10.37,2013-03-01 16:13:00,
2013-03-01 08:23:00,57.9,28.2,29.41,NNE,14,0.0,0.0,32,0.00,SKC,SKC,0.00,WeatherDisplay:10.37,2013-03-01 16:23:00,
2013-03-01 08:33:00,59.3,29.4,29.41,NNW,343,0.0,0.0,32,0.00,SKC,SKC,0.00,WeatherDisplay:10.37,2013-03-01 16:33:00,
2013-03-01 08:43:00,60.1,30.1,29.41,WSW,254,1.0,3.0,32,0.00,SKC,SKC,0.00,WeatherDisplay:10.37,2013-03-01 16:43:00,
2013-03-01 08:53:00,60.9,30.0,29.41,SW,234,0.0,4.0,31,0.00,SKC,SKC,0.00,WeatherDisplay:10.37,2013-03-01 16:53:00,
2013-03-01 09:03:00,61.9,30.9,29.41,SW,231,1.0,4.0,31,0.00,SKC,SKC,0.00,WeatherDisplay:10.37,2013-03-01 17:03:00,
2013-03-01 09:08:00,62.2,31.2,29.41,SW,225,1.0,4.0,31,0.00,SKC,SKC,0.00,WeatherDisplay:10.37,2013-03-01 17:08:00,
2013-03-01 09:13:00,62.6,31.5,29.41,SW,215,1.0,4.0,31,0.00,SKC,SKC,0.00,WeatherDisplay:10.37,2013-03-01 17:13:00,
2013-03-01 09:18:00,63.3,32.1,29.41,SSW,201,0.0,0.0,31,0.00,SKC,SKC,0.00,WeatherDisplay:10.37,2013-03-01 17:18:00,
2013-03-01 09:23:00,63.9,32.7,29.41,South,184,1.0,4.0,31,0.00,SKC,SKC,0.00,WeatherDisplay:10.37,2013-03-01 17:23:00,
2013-03-01 09:28:00,64.2,32.9,29.41,SW,225,3.0,6.0,31,0.00,SKC,SKC,0.00,WeatherDisplay:10.37,2013-03-01 17:28:00,
2013-03-01 09:33:00,64.6,32.4,29.41,WSW,237,2.0,5.0,30,0.00,SKC,SKC,0.00,WeatherDisplay:10.37,2013-03-01 17:33:00,
2013-03-01 09:38:00,64.8,32.6,29.41,SW,235,3.0,6.0,30,0.00,SKC,SKC,0.00,WeatherDisplay:10.37,2013-03-01 17:38:00,
2013-03-01 09:43:00,64.8,32.6,29.41,WSW,237,1.0,5.0,30,0.00,SKC,SKC,0.00,WeatherDisplay:10.37,2013-03-01 17:43:00,
2013-03-01 09:48:00,65.1,32.9,29.41,WSW,241,1.0,6.0,30,0.00,SKC,SKC,0.00,WeatherDisplay:10.37,2013-03-01 17:48:00,
2013-03-01 09:53:00,65.7,33.4,29.41,WSW,241,0.0,3.0,30,0.00,SKC,SKC,0.00,WeatherDisplay:10.37,2013-03-01 17:53:00,
2013-03-01 10:03:00,66.2,33.8,29.41,WSW,237,2.0,6.0,30,0.00,SKC,SKC,0.00,WeatherDisplay:10.37,2013-03-01 18:03:00,
2013-03-01 10:08:00,66.6,34.1,29.41,SW,235,2.0,4.0,30,0.00,SKC,SKC,0.00,WeatherDisplay:10.37,2013-03-01 18:08:00,
2013-03-01 10:13:00,67.0,34.5,29.41,WSW,254,0.0,3.0,30,0.00,SKC,SKC,0.00,WeatherDisplay:10.37,2013-03-01 18:13:00,
2013-03-01 10:23:00,67.3,34.8,29.38,SW,231,3.0,6.0,30,0.00,SKC,SKC,0.00,WeatherDisplay:10.37,2013-03-01 18:23:00,
2013-03-01 10:33:00,67.2,34.7,29.38,SW,229,3.0,6.0,30,0.00,SKC,SKC,0.00,WeatherDisplay:10.37,2013-03-01 18:33:00,
2013-03-01 10:43:00,67.6,35.1,29.38,SW,228,5.0,7.0,30,0.00,SKC,SKC,0.00,WeatherDisplay:10.37,2013-03-01 18:43:00,
2013-03-01 10:53:00,69.0,36.3,29.38,SW,235,2.0,5.0,30,0.00,SKC,SKC,0.00,WeatherDisplay:10.37,2013-03-01 18:53:00,
2013-03-01 11:03:00,70.5,36.7,29.38,WSW,247,2.0,6.0,29,0.00,SKC,SKC,0.00,WeatherDisplay:10.37,2013-03-01 19:03:00,
2013-03-01 11:08:00,70.4,36.6,29.38,WSW,243,3.0,6.0,29,0.00,SKC,SKC,0.00,WeatherDisplay:10.37,2013-03-01 19:08:00,
2013-03-01 11:13:00,70.1,36.4,29.38,WSW,237,3.0,7.0,29,0.00,SKC,SKC,0.00,WeatherDisplay:10.37,2013-03-01 19:13:00,
2013-03-01 11:23:00,70.6,36.8,29.38,WSW,242,3.0,6.0,29,0.00,SKC,SKC,0.00,WeatherDisplay:10.37,2013-03-01 19:23:00,
2013-03-01 11:33:00,71.2,37.3,29.38,SW,226,3.0,6.0,29,0.00,SKC,SKC,0.00,WeatherDisplay:10.37,2013-03-01 19:33:00,
2013-03-01 11:43:00,71.4,37.5,29.38,SW,231,5.0,6.0,29,0.00,SKC,SKC,0.00,WeatherDisplay:10.37,2013-03-01 19:43:00,
2013-03-01 11:48:00,71.7,37.8,29.38,SW,236,2.0,6.0,29,0.00,SKC,SKC,0.00,WeatherDisplay:10.37,2013-03-01 19:48:00,
2013-03-01 11:53:00,72.5,38.5,29.38,SW,226,2.0,6.0,29,0.00,SKC,SKC,0.00,WeatherDisplay:10.37,2013-03-01 19:53:00,
2013-03-01 12:03:00,73.5,38.4,29.38,WSW,246,3.0,6.0,28,0.00,SKC,SKC,0.00,WeatherDisplay:10.37,2013-03-01 20:03:00,
2013-03-01 12:08:00,74.4,39.1,29.38,West,266,1.0,4.0,28,0.00,SKC,SKC,0.00,WeatherDisplay:10.37,2013-03-01 20:08:00,
2013-03-01 12:13:00,75.0,39.7,29.38,WNW,301,2.0,5.0,28,0.00,SKC,SKC,0.00,WeatherDisplay:10.37,2013-03-01 20:13:00,
2013-03-01 12:23:00,75.7,40.3,29.38,WSW,256,2.0,5.0,28,0.00,SKC,SKC,0.00,WeatherDisplay:10.37,2013-03-01 20:23:00,
2013-03-01 12:33:00,76.3,40.8,29.38,NNW,329,3.0,6.0,28,0.00,SKC,SKC,0.00,WeatherDisplay:10.37,2013-03-01 20:33:00,
2013-03-01 12:43:00,76.7,41.1,29.35,West,261,0.0,6.0,28,0.00,SKC,SKC,0.00,WeatherDisplay:10.37,2013-03-01 20:43:00,
2013-03-01 12:53:00,76.6,41.1,29.35,SW,232,2.0,4.0,28,0.00,SKC,SKC,0.00,WeatherDisplay:10.37,2013-03-01 20:53:00,
2013-03-01 13:03:00,77.4,41.7,29.35,WSW,255,0.0,6.0,28,0.00,SKC,SKC,0.00,WeatherDisplay:10.37,2013-03-01 21:03:00,
2013-03-01 13:08:00,77.9,42.2,29.35,SW,235,2.0,6.0,28,0.00,SKC,SKC,0.00,WeatherDisplay:10.37,2013-03-01 21:08:00,
2013-03-01 13:13:00,77.0,41.4,29.35,SW,232,3.0,6.0,28,0.00,SKC,SKC,0.00,WeatherDisplay:10.37,2013-03-01 21:13:00,
2013-03-01 13:18:00,76.6,41.1,29.35,WSW,239,3.0,7.0,28,0.00,SKC,SKC,0.00,WeatherDisplay:10.37,2013-03-01 21:18:00,
2013-03-01 13:23:00,77.1,41.5,29.35,WSW,251,1.0,6.0,28,0.00,SKC,SKC,0.00,WeatherDisplay:10.37,2013-03-01 21:23:00,
2013-03-01 13:33:00,77.0,41.4,29.35,WSW,238,0.0,6.0,28,0.00,SKC,SKC,0.00,WeatherDisplay:10.37,2013-03-01 21:33:00,
2013-03-01 13:38:00,76.6,41.0,29.32,WSW,238,3.0,6.0,28,0.00,SKC,SKC,0.00,WeatherDisplay:10.37,2013-03-01 21:38:00,
2013-03-01 13:43:00,75.4,40.0,29.32,SW,228,5.0,8.0,28,0.00,SKC,SKC,0.00,WeatherDisplay:10.37,2013-03-01 21:43:00,
2013-03-01 13:53:00,76.5,41.0,29.32,SW,233,5.0,8.0,28,0.00,SKC,SKC,0.00,WeatherDisplay:10.37,2013-03-01 21:53:00,
2013-03-01 14:03:00,75.0,39.6,29.32,SW,235,6.0,8.0,28,0.00,SKC,SKC,0.00,WeatherDisplay:10.37,2013-03-01 22:03:00,
2013-03-01 14:08:00,74.4,39.2,29.32,SW,234,3.0,8.0,28,0.00,SKC,SKC,0.00,WeatherDisplay:10.37,2013-03-01 22:08:00,
2013-03-01 14:13:00,74.9,39.6,29.32,SW,234,3.0,8.0,28,0.00,SKC,SKC,0.00,WeatherDisplay:10.37,2013-03-01 22:13:00,
2013-03-01 14:23:00,74.4,39.1,29.32,SW,225,6.0,8.0,28,0.00,SKC,SKC,0.00,WeatherDisplay:10.37,2013-03-01 22:23:00,
2013-03-01 14:33:00,74.4,39.2,29.32,SW,234,5.0,8.0,28,0.00,SKC,SKC,0.00,WeatherDisplay:10.37,2013-03-01 22:33:00,
2013-03-01 14:38:00,74.8,39.5,29.32,SW,228,2.0,8.0,28,0.00,SKC,SKC,0.00,WeatherDisplay:10.37,2013-03-01 22:38:00,
2013-03-01 14:43:00,75.2,39.8,29.32,SW,222,3.0,8.0,28,0.00,SKC,SKC,0.00,WeatherDisplay:10.37,2013-03-01 22:43:00,
2013-03-01 14:48:00,74.9,39.6,29.32,SW,217,3.0,6.0,28,0.00,SKC,SKC,0.00,WeatherDisplay:10.37,2013-03-01 22:48:00,
2013-03-01 14:53:00,74.7,39.4,29.32,SW,220,3.0,6.0,28,0.00,SKC,SKC,0.00,WeatherDisplay:10.37,2013-03-01 22:53:00,
2013-03-01 14:58:00,74.7,39.4,29.32,SW,232,2.0,6.0,28,0.00,SKC,SKC,0.00,WeatherDisplay:10.37,2013-03-01 22:58:00,
2013-03-01 15:03:00,74.8,39.5,29.32,SW,228,3.0,6.0,28,0.00,SKC,SKC,0.00,WeatherDisplay:10.37,2013-03-01 23:03:00,
2013-03-01 15:08:00,74.5,39.2,29.32,SW,219,5.0,6.0,28,0.00,FEW,FEW,0.00,WeatherDisplay:10.37,2013-03-01 23:08:00,
2013-03-01 15:13:00,74.7,39.4,29.32,SW,228,5.0,9.0,28,0.00,FEW,FEW,0.00,WeatherDisplay:10.37,2013-03-01 23:13:00,
2013-03-01 15:23:00,74.1,38.9,29.32,SW,231,3.0,6.0,28,0.00,FEW,FEW,0.00,WeatherDisplay:10.37,2013-03-01 23:23:00,
2013-03-01 15:33:00,73.8,38.6,29.32,SW,229,5.0,8.0,28,0.00,FEW,FEW,0.00,WeatherDisplay:10.37,2013-03-01 23:33:00,
2013-03-01 15:43:00,73.8,38.6,29.32,SW,232,2.0,6.0,28,0.00,FEW,FEW,0.00,WeatherDisplay:10.37,2013-03-01 23:43:00,
2013-03-01 15:53:00,74.1,38.9,29.32,WSW,239,5.0,6.0,28,0.00,FEW,FEW,0.00,WeatherDisplay:10.37,2013-03-01 23:53:00,
2013-03-01 16:03:00,73.1,39.0,29.32,SW,234,5.0,6.0,29,0.00,FEW,FEW,0.00,WeatherDisplay:10.37,2013-03-02 00:03:00,
2013-03-01 16:08:00,72.5,38.4,29.29,SW,231,6.0,8.0,29,0.00,SKC,SKC,0.00,WeatherDisplay:10.37,2013-03-02 00:08:00,
2013-03-01 16:13:00,72.7,38.6,29.29,SW,235,1.0,6.0,29,0.00,SKC,SKC,0.00,WeatherDisplay:10.37,2013-03-02 00:13:00,
2013-03-01 16:23:00,72.9,38.7,29.30,SW,232,3.0,4.0,29,0.00,SKC,SKC,0.00,WeatherDisplay:10.37,2013-03-02 00:23:00,
2013-03-01 16:33:00,72.7,38.6,29.32,SW,231,2.0,4.0,29,0.00,SKC,SKC,0.00,WeatherDisplay:10.37,2013-03-02 00:33:00,
2013-03-01 16:43:00,72.5,38.4,29.32,SW,235,0.0,4.0,29,0.00,SKC,SKC,0.00,WeatherDisplay:10.37,2013-03-02 00:43:00,
2013-03-01 16:53:00,71.8,37.8,29.32,SW,221,3.0,5.0,29,0.00,SKC,SKC,0.00,WeatherDisplay:10.37,2013-03-02 00:53:00,
2013-03-01 17:03:00,70.7,36.9,29.32,SSW,209,2.0,4.0,29,0.00,SKC,SKC,0.00,WeatherDisplay:10.37,2013-03-02 01:03:00,
2013-03-01 17:08:00,70.3,36.6,29.32,SSW,205,2.0,4.0,29,0.00,SKC,SKC,0.00,WeatherDisplay:10.37,2013-03-02 01:08:00,
2013-03-01 17:13:00,69.8,36.1,29.32,SSW,204,2.0,4.0,29,0.00,SKC,SKC,0.00,WeatherDisplay:10.37,2013-03-02 01:13:00,
2013-03-01 17:18:00,69.4,36.6,29.32,SSW,203,0.0,4.0,30,0.00,SKC,SKC,0.00,WeatherDisplay:10.37,2013-03-02 01:18:00,
2013-03-01 17:23:00,68.9,36.2,29.32,SSW,198,2.0,4.0,30,0.00,SKC,SKC,0.00,WeatherDisplay:10.37,2013-03-02 01:23:00,
2013-03-01 17:28:00,68.4,35.7,29.32,SSW,193,1.0,4.0,30,0.00,SKC,SKC,0.00,WeatherDisplay:10.37,2013-03-02 01:28:00,
2013-03-01 17:33:00,68.0,35.4,29.32,SSW,193,0.0,3.0,30,0.00,SKC,SKC,0.00,WeatherDisplay:10.37,2013-03-02 01:33:00,
2013-03-01 17:38:00,67.6,35.1,29.32,South,183,0.0,4.0,30,0.00,SKC,SKC,0.00,WeatherDisplay:10.37,2013-03-02 01:38:00,
2013-03-01 17:43:00,67.3,34.8,29.32,SSE,168,0.0,4.0,30,0.00,SKC,SKC,0.00,WeatherDisplay:10.37,2013-03-02 01:43:00,
2013-03-01 17:48:00,67.3,34.7,29.32,SSE,167,0.0,0.0,30,0.00,SKC,SKC,0.00,WeatherDisplay:10.37,2013-03-02 01:48:00,
2013-03-01 17:53:00,67.1,34.6,29.32,SSE,166,0.0,0.0,30,0.00,SKC,SKC,0.00,WeatherDisplay:10.37,2013-03-02 01:53:00,
2013-03-01 17:58:00,66.8,34.3,29.32,SSE,166,0.0,0.0,30,0.00,SKC,SKC,0.00,WeatherDisplay:10.37,2013-03-02 01:58:00,
2013-03-01 18:08:00,66.0,33.7,29.29,SSE,166,0.0,0.0,30,0.00,SKC,SKC,0.00,WeatherDisplay:10.37,2013-03-02 02:08:00,
2013-03-01 18:13:00,65.8,33.5,29.29,SSE,166,0.0,0.0,30,0.00,SKC,SKC,0.00,WeatherDisplay:10.37,2013-03-02 02:13:00,
2013-03-01 18:18:00,65.7,33.4,29.29,SSE,166,0.0,0.0,30,0.00,SKC,SKC,0.00,WeatherDisplay:10.37,2013-03-02 02:18:00,
2013-03-01 18:23:00,65.3,33.0,29.32,SSE,166,0.0,0.0,30,0.00,SKC,SKC,0.00,WeatherDisplay:10.37,2013-03-02 02:23:00,
2013-03-01 18:28:00,64.9,32.7,29.32,SSE,166,0.0,0.0,30,0.00,SKC,SKC,0.00,WeatherDisplay:10.37,2013-03-02 02:28:00,
2013-03-01 18:33:00,64.7,32.6,29.32,SSE,166,0.0,0.0,30,0.00,SKC,SKC,0.00,WeatherDisplay:10.37,2013-03-02 02:33:00,
2013-03-01 18:43:00,63.9,32.7,29.32,SSE,166,0.0,0.0,31,0.00,SKC,SKC,0.00,WeatherDisplay:10.37,2013-03-02 02:43:00,
2013-03-01 18:53:00,63.0,31.8,29.32,SSE,166,0.0,0.0,31,0.00,SKC,SKC,0.00,WeatherDisplay:10.37,2013-03-02 02:53:00,
2013-03-01 19:03:00,62.4,31.4,29.32,SSE,166,0.0,0.0,31,0.00,SKC,SKC,0.00,WeatherDisplay:10.37,2013-03-02 03:03:00,
2013-03-01 19:08:00,62.1,31.0,29.32,SSE,166,0.0,0.0,31,0.00,SCT,SCT,0.00,WeatherDisplay:10.37,2013-03-02 03:08:00,
2013-03-01 19:13:00,61.9,30.9,29.32,SSE,164,0.0,0.0,31,0.00,SCT,SCT,0.00,WeatherDisplay:10.37,2013-03-02 03:13:00,
2013-03-01 19:23:00,61.7,30.7,29.29,SSE,159,0.0,0.0,31,0.00,SCT,SCT,0.00,WeatherDisplay:10.37,2013-03-02 03:23:00,
2013-03-01 19:33:00,61.5,30.6,29.29,SE,132,0.0,0.0,31,0.00,SCT,SCT,0.00,WeatherDisplay:10.37,2013-03-02 03:33:00,
2013-03-01 19:43:00,61.3,30.4,29.29,East,82,0.0,0.0,31,0.00,SCT,SCT,0.00,WeatherDisplay:10.37,2013-03-02 03:43:00,
2013-03-01 19:53:00,61.3,30.4,29.29,NNE,20,0.0,0.0,31,0.00,SCT,SCT,0.00,WeatherDisplay:10.37,2013-03-02 03:53:00,
2013-03-01 20:03:00,61.2,30.3,29.29,NNE,16,0.0,0.0,31,0.00,SCT,SCT,0.00,WeatherDisplay:10.37,2013-03-02 04:03:00,
2013-03-01 20:08:00,61.0,30.1,29.29,NNE,15,0.0,0.0,31,0.00,SCT,SCT,0.00,WeatherDisplay:10.37,2013-03-02 04:08:00,
2013-03-01 20:13:00,61.0,30.1,29.29,NNE,15,0.0,0.0,31,0.00,SCT,SCT,0.00,WeatherDisplay:10.37,2013-03-02 04:13:00,
2013-03-01 20:23:00,61.0,30.1,29.29,NNE,15,0.0,0.0,31,0.00,SCT,SCT,0.00,WeatherDisplay:10.37,2013-03-02 04:23:00,
2013-03-01 20:33:00,61.2,30.3,29.29,NNE,15,0.0,0.0,31,0.00,SCT,SCT,0.00,WeatherDisplay:10.37,2013-03-02 04:33:00,
2013-03-01 20:43:00,60.9,30.0,29.29,NNE,15,0.0,0.0,31,0.00,SCT,SCT,0.00,WeatherDisplay:10.37,2013-03-02 04:43:00,
2013-03-01 20:48:00,60.8,29.9,29.29,NNE,15,0.0,0.0,31,0.00,SCT,SCT,0.00,WeatherDisplay:10.37,2013-03-02 04:48:00,
2013-03-01 20:53:00,61.1,30.2,29.32,NNE,15,0.0,0.0,31,0.00,SCT,SCT,0.00,WeatherDisplay:10.37,2013-03-02 04:53:00,
2013-03-01 20:58:00,61.3,30.4,29.32,NNE,15,0.0,0.0,31,0.00,SCT,SCT,0.00,WeatherDisplay:10.37,2013-03-02 04:58:00,
2013-03-01 21:03:00,61.2,30.3,29.32,NNE,15,0.0,0.0,31,0.00,SCT,SCT,0.00,WeatherDisplay:10.37,2013-03-02 05:03:00,
2013-03-01 21:08:00,61.2,30.3,29.32,NNE,15,0.0,0.0,31,0.00,SCT,SCT,0.00,WeatherDisplay:10.37,2013-03-02 05:08:00,
2013-03-01 21:13:00,61.2,30.3,29.32,NNE,15,0.0,0.0,31,0.00,SCT,SCT,0.00,WeatherDisplay:10.37,2013-03-02 05:13:00,
2013-03-01 21:23:00,60.8,29.9,29.32,NNE,15,0.0,0.0,31,0.00,SCT,SCT,0.00,WeatherDisplay:10.37,2013-03-02 05:23:00,
2013-03-01 21:33:00,60.1,30.1,29.32,NNE,15,0.0,0.0,32,0.00,SCT,SCT,0.00,WeatherDisplay:10.37,2013-03-02 05:33:00,
2013-03-01 21:43:00,59.5,29.6,29.32,NNE,15,0.0,0.0,32,0.00,SCT,SCT,0.00,WeatherDisplay:10.37,2013-03-02 05:43:00,
2013-03-01 21:48:00,59.5,29.6,29.32,NNE,15,0.0,0.0,32,0.00,SCT,SCT,0.00,WeatherDisplay:10.37,2013-03-02 05:48:00,
2013-03-01 21:53:00,59.5,29.6,29.32,NNE,15,0.0,0.0,32,0.00,SCT,SCT,0.00,WeatherDisplay:10.37,2013-03-02 05:53:00,
2013-03-01 22:03:00,59.2,29.3,29.32,NNE,15,0.0,0.0,32,0.00,SCT,SCT,0.00,WeatherDisplay:10.37,2013-03-02 06:03:00,
2013-03-01 22:08:00,58.8,29.0,29.29,NNE,15,0.0,0.0,32,0.00,SCT,SCT,0.00,WeatherDisplay:10.37,2013-03-02 06:08:00,
2013-03-01 22:13:00,58.8,29.0,29.29,North,7,3.0,4.0,32,0.00,SCT,SCT,0.00,WeatherDisplay:10.37,2013-03-02 06:13:00,
2013-03-01 22:18:00,58.6,28.8,29.29,NNE,14,2.0,4.0,32,0.00,SCT,SCT,0.00,WeatherDisplay:10.37,2013-03-02 06:18:00,
2013-03-01 22:23:00,58.8,29.0,29.29,NNE,17,3.0,4.0,32,0.00,SCT,SCT,0.00,WeatherDisplay:10.37,2013-03-02 06:23:00,
2013-03-01 22:33:00,58.8,29.0,29.29,NNE,18,3.0,4.0,32,0.00,SCT,SCT,0.00,WeatherDisplay:10.37,2013-03-02 06:33:00,
2013-03-01 22:38:00,58.8,29.0,29.29,NNE,19,3.0,4.0,32,0.00,SCT,SCT,0.00,WeatherDisplay:10.37,2013-03-02 06:38:00,
2013-03-01 22:43:00,58.8,29.0,29.29,NNE,23,3.0,4.0,32,0.00,SCT,SCT,0.00,WeatherDisplay:10.37,2013-03-02 06:43:00,
2013-03-01 22:53:00,58.8,29.0,29.29,North,8,3.0,6.0,32,0.00,SCT,SCT,0.00,WeatherDisplay:10.37,2013-03-02 06:53:00,
2013-03-01 23:03:00,58.5,28.7,29.29,NNE,18,2.0,4.0,32,0.00,SCT,SCT,0.00,WeatherDisplay:10.37,2013-03-02 07:03:00,
2013-03-01 23:08:00,58.5,28.7,29.29,NNE,17,3.0,4.0,32,0.00,SCT,SCT,0.00,WeatherDisplay:10.37,2013-03-02 07:08:00,
2013-03-01 23:13:00,58.3,28.5,29.29,NNE,13,3.0,4.0,32,0.00,SCT,SCT,0.00,WeatherDisplay:10.37,2013-03-02 07:13:00,
2013-03-01 23:23:00,58.3,28.5,29.29,North,6,3.0,4.0,32,0.00,SCT,SCT,0.00,WeatherDisplay:10.37,2013-03-02 07:23:00,
2013-03-01 23:33:00,58.1,29.1,29.29,North,3,1.0,4.0,33,0.00,SCT,SCT,0.00,WeatherDisplay:10.37,2013-03-02 07:33:00,
2013-03-01 23:43:00,58.4,30.1,29.29,North,4,0.0,0.0,34,0.00,SCT,SCT,0.00,WeatherDisplay:10.37,2013-03-02 07:43:00,
2013-03-01 23:53:00,58.5,28.7,29.29,North,4,0.0,0.0,32,0.00,SCT,SCT,0.00,WeatherDisplay:10.37,2013-03-02 07:53:00,